Location: ???????
(55.7027°N, 37.3832°E)
Time: 09:11:02
(UTC+00:00)

ATLAS 2AS CENTAUR R/B - Pass Details

Date: 14 April 2026
Orbit: 1052 x 1158 km, 63.7° (Epoch: 9 May)

Event Time Altitude Azimuth Distance (km) Brightness Sun altitude
Exits shadow 22:08:25 29° 135° (SE) 1,869 3.6 -24.2°
Maximum altitude 22:09:36 31° 117° (ESE) 1,806 3.7 -24.1°
Drops below altitude 10° 22:15:23 10° 59° (ENE) 2,895 5.5 -24.0°
Sets 22:18:19 0° 50° (NE) 3,845 6.4 -23.9°
